Estación de Yerbas Buenas

Ultimos registro cada 15 minutos 43
Estación Fecha / Hora Temperatura Humedad Lluvia Velocidad Dirección Radiación Presion
43 Yerbas Buenas 02-05-2026 10:30 8,6 77,8 0 0 215 656,9 1001,8
42 Yerbas Buenas 02-05-2026 10:15 6,2 85,9 0 0 205 415,6 1002
41 Yerbas Buenas 02-05-2026 10:00 5,8 89,6 0 0 241 275,6 1002,3
40 Yerbas Buenas 02-05-2026 09:45 4,5 90,4 0 0 251 65,6 1002,6
39 Yerbas Buenas 02-05-2026 09:30 4,4 90,7 0 0 258 105,6 1002,6
38 Yerbas Buenas 02-05-2026 09:15 4,2 92,1 0 0 251 84,4 1002,7
37 Yerbas Buenas 02-05-2026 09:00 4,1 92,5 0 0 272 63,1 1002,5
36 Yerbas Buenas 02-05-2026 08:45 4,2 92,7 0 0 274 41,9 1002,5
35 Yerbas Buenas 02-05-2026 08:30 4,2 92,6 0 0 225 38,1 1002,5
34 Yerbas Buenas 02-05-2026 08:15 4,1 92,2 0 0 213 26,9 1002,2
33 Yerbas Buenas 02-05-2026 08:00 4,1 92,1 0 0 241 20,6 1002,3
32 Yerbas Buenas 02-05-2026 07:45 4,2 92,2 0 0 248 9,4 1002,3
31 Yerbas Buenas 02-05-2026 07:30 4 92,1 0 0 263 1,9 1002,3
30 Yerbas Buenas 02-05-2026 07:15 4,1 92 0 0 268 0,6 1002,4
29 Yerbas Buenas 02-05-2026 07:00 4 92,2 0 0 264 0,6 1002,4
28 Yerbas Buenas 02-05-2026 06:45 4 92,6 0 0 253 0,6 1002,3
27 Yerbas Buenas 02-05-2026 06:30 3,9 92,8 0 0 260 0,6 1002,3
26 Yerbas Buenas 02-05-2026 06:15 3,9 93 0 0 261 0,6 1002,1
25 Yerbas Buenas 02-05-2026 06:00 3,6 92,9 0 0 272 0,6 1002,2
24 Yerbas Buenas 02-05-2026 05:45 2,9 92,5 0 0 272 0,6 1002,3
23 Yerbas Buenas 02-05-2026 05:30 3,3 92,4 0 0 272 0,6 1002,4
22 Yerbas Buenas 02-05-2026 05:15 3,6 92,5 0 0 272 0,6 1002,4
21 Yerbas Buenas 02-05-2026 05:00 3,5 92,3 0 0 272 0,6 1002,8
20 Yerbas Buenas 02-05-2026 04:45 3,7 91,9 0 0 272 0,6 1002,9
19 Yerbas Buenas 02-05-2026 04:30 4,1 91,9 0 0 272 0,6 1003,1
18 Yerbas Buenas 02-05-2026 04:15 4,2 91,8 0 0 272 0,6 1003,2
17 Yerbas Buenas 02-05-2026 04:00 4,3 92 0 0 272 0,6 1003,5
16 Yerbas Buenas 02-05-2026 03:45 4,3 91,5 0 0 272 0,6 1003,8
15 Yerbas Buenas 02-05-2026 03:30 4,5 90,9 0 0 272 0,6 1003,9
14 Yerbas Buenas 02-05-2026 03:15 4,8 90,8 0 0 272 0,6 1004
13 Yerbas Buenas 02-05-2026 03:00 5,1 90,5 0 0 272 0,6 1004,2
12 Yerbas Buenas 02-05-2026 02:45 5,2 90 0 0 272 0,6 1004,2
11 Yerbas Buenas 02-05-2026 02:30 5,5 89,6 0 0 272 0,6 1004,4
10 Yerbas Buenas 02-05-2026 02:15 5,8 89,3 0 0 272 0,6 1004,6
9 Yerbas Buenas 02-05-2026 02:00 6,1 89,2 0 0 272 0,6 1004,7
8 Yerbas Buenas 02-05-2026 01:45 6,2 89 0 0 271 0,6 1004,7
7 Yerbas Buenas 02-05-2026 01:30 6,2 89,8 0 0 264 0,6 1004,9
6 Yerbas Buenas 02-05-2026 01:15 6,4 89,8 0 0 258 0,6 1004,9
5 Yerbas Buenas 02-05-2026 01:00 6,7 90,2 0 0 261 0,6 1005
4 Yerbas Buenas 02-05-2026 00:45 6,6 90,3 0 0 265 0,6 1005,4
3 Yerbas Buenas 02-05-2026 00:30 6,8 90,5 0 0 265 0,6 1005,2
2 Yerbas Buenas 02-05-2026 00:15 7 89,4 0 0 265 0,6 1005,4
1 Yerbas Buenas 02-05-2026 00:00 7,3 90,2 0 0 265 0,6 1005,7